Lapse_Rate
6.2 6.2 6.2 6.3 6.1 6.0 6.2 6.1 6.0 6.0 6.1 6.0 6.0 6.4 6.6 6.8 6.8 6.9 6.8 6.8 6.6 6.3 6.8 7.0 7.3 7.5 7.1 7.0 7.5 7.6 7.4 7.2 7.4 8.0 8.0 7.4 7.5 7.4 7.2 6.7 6.6 6.5 6.9 6.8 6.5
6.3 6.3 6.3 6.4 6.2 6.2 6.3 6.3 6.2 6.1 6.1 6.1 6.2 6.5 6.7 6.8 6.8 6.8 6.8 6.8 6.2 6.3 6.8 7.0 7.3 7.2 7.3 7.6 7.6 7.6 7.5 7.4 7.9 7.9 8.1 7.6 7.7 7.2 6.9 6.8 6.5 6.2 6.7 7.0 6.7
6.5 6.4 6.3 6.5 6.3 6.3 6.4 6.4 6.2 6.3 6.2 6.2 6.5 6.8 6.8 6.8 6.7 6.7 6.8 6.5 6.2 6.3 6.2 6.4 6.8 7.1 7.4 7.5 7.4 7.3 7.3 7.3 8.0 8.1 7.8 7.5 7.4 7.2 7.0 6.7 6.4 6.3 6.4 7.0 6.8
6.7 6.5 6.5 6.5 6.5 6.3 6.4 6.5 6.3 6.4 6.2 6.3 6.7 6.9 6.9 6.8 6.8 6.7 6.9 6.4 6.3 6.3 6.2 6.5 6.8 6.8 6.9 7.4 7.2 7.1 7.2 7.0 7.0 7.8 7.9 7.7 7.3 7.0 6.9 6.7 6.6 6.3 6.2 6.9 6.9
6.8 6.6 6.6 6.7 6.6 6.4 6.5 6.6 6.5 6.4 6.3 6.5 6.9 7.1 7.0 6.8 6.8 6.9 6.9 6.5 6.4 6.5 6.5 6.5 6.7 7.4 7.2 7.1 6.9 7.0 7.0 6.7 7.3 7.2 7.9 7.7 7.6 7.3 7.1 6.8 6.6 6.3 6.1 6.2 6.4
6.9 6.7 6.7 6.9 6.6 6.4 6.6 6.7 6.6 6.5 6.5 6.7 7.1 7.2 7.1 7.0 6.7 6.9 6.7 6.4 6.3 6.3 6.3 6.7 6.6 7.1 7.1 7.0 7.3 7.2 7.0 7.5 7.0 6.7 7.5 7.6 7.5 7.3 7.0 6.7 6.4 6.2 6.1 5.5 5.8
6.9 6.8 6.8 6.9 6.7 6.5 6.7 6.9 6.7 6.6 6.8 7.0 7.3 7.3 7.1 7.1 6.8 7.0 6.7 6.4 6.4 6.2 6.6 6.6 6.5 6.9 7.0 7.0 7.3 7.2 7.3 7.3 7.5 7.4 7.1 7.6 7.3 7.2 7.0 7.0 6.5 6.3 6.5 6.4 5.8
7.0 6.9 7.0 7.0 6.7 6.6 6.8 7.0 6.8 6.8 7.0 7.3 7.4 7.3 7.1 7.2 6.8 6.9 6.7 6.4 6.5 6.3 6.6 6.5 6.6 6.5 6.9 7.2 6.7 6.8 7.2 7.4 7.6 7.3 7.2 7.4 7.2 6.9 6.7 6.7 6.8 6.4 6.5 6.8 6.5
7.1 7.0 7.1 7.1 6.7 6.7 6.9 7.1 6.9 7.0 7.3 7.4 7.4 7.3 7.3 7.2 6.9 6.9 6.9 6.7 6.7 6.5 6.4 6.6 6.7 6.6 6.4 6.6 6.7 6.8 7.3 7.2 7.4 7.1 7.3 7.1 6.9 6.7 6.4 6.7 6.9 6.8 6.7 6.8 6.9
7.2 7.1 7.2 7.1 6.8 6.8 7.0 7.0 6.9 7.0 7.2 7.3 7.4 7.4 7.2 7.0 7.1 7.1 6.9 6.9 6.8 6.9 7.0 6.7 6.6 6.8 6.8 6.8 7.4 7.7 7.5 7.3 7.3 7.7 7.5 7.3 7.1 7.0 6.8 7.0 7.0 7.0 6.7 6.7 6.7
7.2 7.2 7.2 7.2 6.9 6.9 7.0 7.0 6.8 6.9 7.2 7.2 7.4 7.2 7.1 7.0 6.9 7.1 7.4 7.3 6.9 6.6 6.7 7.0 7.0 7.2 7.7 7.6 7.2 7.4 7.6 7.6 7.9 7.7 7.4 7.6 7.3 7.6 7.1 7.1 7.1 7.2 6.9 6.5 6.7
7.2 7.3 7.2 7.4 7.0 7.0 7.0 6.9 7.0 7.3 7.6 7.5 7.5 7.5 7.2 7.0 7.3 7.4 7.6 7.5 7.2 6.8 7.1 7.2 7.2 7.1 7.7 7.7 7.7 7.3 7.4 8.0 8.3 8.0 7.6 7.8 7.7 7.7 7.3 7.5 7.2 7.1 7.1 6.8 7.0
7.1 7.2 7.3 7.4 7.0 7.0 6.6 6.6 7.1 7.4 7.6 7.7 7.8 7.4 7.1 7.2 7.4 7.9 7.3 7.6 7.4 7.2 7.4 7.7 8.0 7.9 7.9 7.7 8.3 8.2 8.1 8.2 7.8 8.0 7.9 8.0 7.7 8.0 8.0 7.5 7.4 7.2 7.1 7.3 7.2
7.0 7.1 7.4 7.4 7.0 6.7 6.4 7.0 7.3 7.5 7.5 8.0 7.9 7.6 7.6 7.0 7.3 7.8 7.1 7.2 7.5 7.8 8.1 8.2 7.9 7.9 7.9 8.5 8.6 8.5 8.4 8.1 8.0 8.2 7.9 7.7 7.9 8.1 8.3 8.2 7.9 7.4 7.6 8.0 8.3
6.7 7.0 7.4 7.4 7.0 6.7 6.9 7.3 7.3 7.5 6.9 8.1 8.0 7.8 7.6 7.3 8.1 8.2 7.7 7.6 7.6 7.8 7.7 8.1 8.1 8.2 8.5 8.6 8.4 8.5 8.4 8.7 8.4 8.2 8.0 7.8 7.8 8.3 8.0 8.0 8.1 8.0 7.9 7.7 8.0
6.4 6.8 7.3 7.3 6.9 6.9 7.2 7.2 7.3 7.2 7.2 8.1 7.9 8.1 7.6 7.7 7.8 8.1 7.9 7.9 7.9 7.9 7.9 8.2 8.3 8.5 8.6 8.9 8.3 8.4 8.6 8.6 9.0 8.7 7.8 8.1 7.9 8.5 8.4 8.2 8.5 8.2 8.2 8.3 8.1
6.2 6.8 7.2 7.0 6.8 7.0 7.0 7.0 7.1 7.1 7.8 8.0 8.0 7.9 7.9 7.7 8.1 7.8 8.0 8.4 8.4 8.0 8.1 8.2 8.7 8.8 8.6 8.9 9.0 8.8 8.8 8.7 8.0 7.6 7.2 8.2 7.9 8.6 8.7 8.6 8.7 8.5 8.6 8.6 8.4
6.3 6.8 6.9 6.9 6.9 7.0 7.1 7.0 7.3 7.6 7.4 7.6 7.8 8.0 7.8 7.4 7.8 8.3 7.8 8.1 7.9 7.9 7.6 7.8 8.6 8.9 8.8 8.8 8.6 8.8 9.2 8.9 7.4 6.4 7.5 8.2 8.2 8.8 8.9 8.7 8.5 8.5 8.3 8.7 8.6
6.4 6.9 6.7 6.9 6.9 7.1 7.2 7.1 7.6 7.3 7.3 7.3 7.9 8.1 8.1 8.0 8.0 8.0 8.3 8.1 7.9 7.9 7.7 7.9 8.4 8.8 8.9 8.8 9.0 9.4 9.4 9.1 8.5 7.5 7.9 8.0 8.3 8.6 8.5 8.4 8.2 8.7 9.1 8.9 8.9
6.5 6.9 6.7 7.1 6.9 7.0 7.2 7.4 7.8 7.4 7.3 7.2 7.7 7.8 8.1 8.4 8.1 8.0 7.9 7.5 7.9 7.7 7.6 7.8 8.4 9.0 8.9 9.1 9.2 9.2 9.3 9.3 8.8 7.0 7.6 7.8 8.2 8.4 8.4 8.1 8.4 8.9 9.2 9.0 9.0
6.8 6.8 6.9 7.0 6.9 7.0 7.1 7.5 8.1 7.0 7.2 7.6 7.7 7.9 8.0 8.0 8.3 7.9 7.5 7.5 7.9 7.8 7.7 7.9 8.0 9.0 8.9 8.9 9.0 9.3 9.3 9.2 9.0 8.5 6.7 6.3 7.7 8.6 8.8 8.4 8.9 9.4 9.4 9.2 9.0
6.6 6.7 7.1 7.0 6.9 7.0 7.4 7.5 7.8 7.2 7.3 7.5 7.7 8.1 8.2 8.2 8.2 8.0 8.3 8.0 8.0 8.1 7.8 7.9 8.2 8.6 8.9 8.9 9.2 9.2 9.2 9.1 9.1 8.3 8.1 8.0 7.7 8.1 8.3 8.5 9.2 9.4 9.0 8.6 8.4
6.5 7.0 6.9 6.8 6.9 7.4 7.6 7.2 7.8 7.5 7.4 7.7 7.9 7.7 8.1 7.9 7.5 8.6 7.5 7.5 7.6 8.1 7.8 8.3 8.5 8.4 9.3 9.3 9.3 9.2 9.0 8.9 8.8 8.7 8.6 8.0 7.7 7.8 8.2 8.3 8.6 8.5 8.2 8.3 8.5
6.6 6.5 6.6 6.8 7.2 7.2 7.5 7.9 7.6 7.4 7.6 6.8 7.8 7.6 8.2 8.2 8.5 8.3 7.6 7.4 7.5 8.1 8.2 7.7 8.3 8.6 8.7 9.0 9.1 9.1 8.9 8.9 8.9 9.0 8.9 8.5 8.1 7.8 8.0 8.2 8.3 8.3 8.3 8.4 8.5
6.5 6.3 6.8 7.2 7.6 7.7 7.6 7.5 7.6 7.7 7.1 7.5 7.5 7.5 8.3 8.6 8.4 8.0 7.6 7.7 8.1 8.3 7.9 8.0 8.5 8.5 8.9 9.0 8.9 8.8 8.9 9.2 9.3 9.1 9.1 8.9 8.5 8.3 8.1 8.2 8.3 8.4 8.6 8.6 8.5
6.5 6.5 7.0 7.4 7.4 7.4 7.6 7.6 7.8 7.9 8.0 8.3 8.2 8.9 8.4 8.4 8.7 8.5 8.5 8.4 8.7 8.7 8.4 8.4 8.6 8.6 8.6 9.1 9.2 9.2 9.2 9.1 9.2 9.1 8.8 8.5 8.2 8.2 8.3 8.4 8.4 8.6 8.6 8.3 8.1
6.4 6.8 7.3 7.2 7.4 7.8 8.1 7.9 7.9 7.9 8.1 8.3 8.4 8.7 8.8 9.0 8.7 8.8 8.8 8.8 8.4 8.1 8.1 8.3 8.4 8.5 8.9 9.4 9.4 9.1 8.8 9.0 9.0 8.4 8.4 8.6 8.7 8.6 8.6 8.6 8.5 8.0 7.7 7.5 7.2
Wind_Speed
15 15 15 16 15 15 15 16 16 16 15 15 16 17 18 20 22 2 6 8 5 3 2 4 1 2 3 2 0 4 3 2 3 2 2 7 5 5 4 11 3 5 7 12 19
15 16 15 17 16 15 16 16 16 16 15 15 16 17 17 18 4 5 9 6 8 8 1 3 5 6 3 4 3 5 3 3 3 5 5 4 9 8 4 5 3 10 16 21 20
16 17 16 17 17 16 16 16 16 16 16 15 16 18 18 14 4 5 3 8 7 4 3 3 3 4 5 3 5 3 3 6 7 11 7 8 7 4 12 2 6 20 21 21 20
16 17 17 17 17 17 17 16 15 16 16 16 15 18 20 2 1 2 7 13 9 4 3 2 3 3 3 3 3 4 2 5 12 14 6 8 6 6 1 3 11 18 21 19 20
17 17 18 18 18 18 18 17 16 16 16 15 14 16 4 3 7 2 13 10 5 2 5 4 3 4 5 3 3 1 6 9 18 19 2 7 5 6 4 11 13 16 14 18 18
17 17 18 18 19 19 19 18 17 16 15 14 13 14 2 4 4 6 9 5 4 3 6 2 1 5 7 3 2 2 9 12 10 14 5 8 4 6 4 13 14 14 12 9 16
18 18 18 19 19 19 20 20 19 16 14 11 10 3 0 10 6 6 8 5 4 4 2 5 6 6 2 3 7 5 9 15 3 2 3 9 5 1 12 13 15 14 13 11 10
18 18 18 19 20 20 22 22 21 17 12 9 3 1 6 4 2 3 4 4 6 4 4 3 8 5 2 5 3 5 4 5 5 1 4 5 3 3 9 14 14 15 13 16 14
18 18 18 19 20 21 23 24 23 15 7 3 1 2 9 3 3 8 7 5 3 4 7 8 5 2 2 4 3 1 3 5 7 7 2 2 4 5 9 12 13 14 13 14 13
17 17 17 19 19 21 27 21 5 0 3 4 3 3 6 4 4 6 6 4 4 5 4 6 3 2 1 2 4 5 4 5 5 2 4 3 3 7 10 12 13 13 11 9 12
17 17 17 18 18 18 12 3 2 1 1 8 6 4 5 4 2 3 6 6 4 6 3 2 4 7 13 8 2 3 4 6 5 8 1 5 3 12 11 7 10 9 9 9 12
17 17 17 17 18 16 4 1 2 2 6 11 10 8 7 4 5 3 4 6 4 4 1 2 4 13 10 8 10 8 6 7 11 12 6 4 4 3 8 11 14 14 11 13 7
17 16 16 17 19 4 1 6 4 6 1 7 6 6 6 9 8 7 8 4 4 7 7 5 3 7 9 8 11 11 7 8 5 3 4 5 4 5 4 6 7 8 10 12 12
16 15 15 19 4 3 4 2 7 5 4 6 5 8 5 6 5 6 5 5 1 6 6 5 3 7 7 9 10 3 8 12 5 3 4 3 3 5 6 7 7 11 10 14 13
15 13 11 7 6 2 3 7 5 2 1 2 4 1 5 10 5 5 4 4 6 6 4 5 6 7 7 5 8 9 2 9 3 5 4 0 3 7 3 7 10 11 15 17 15
13 11 10 1 2 7 12 8 3 6 4 4 6 6 6 2 3 3 3 3 3 4 3 6 2 3 7 5 9 5 6 4 4 4 2 5 5 5 5 10 6 6 14 16 16
12 9 4 3 4 9 6 3 4 3 5 6 3 4 3 2 4 3 5 4 4 2 4 7 4 4 4 3 3 5 6 3 3 3 5 2 4 9 4 8 10 12 13 16 14
11 8 6 6 7 9 4 5 3 4 5 5 4 4 6 3 4 3 4 4 2 4 1 2 7 2 3 5 5 5 7 6 6 4 3 2 4 5 6 6 1 5 9 8 10
9 1 3 5 16 2 4 3 6 5 3 5 7 4 5 7 4 2 6 5 3 4 5 2 6 5 6 4 7 3 3 4 7 2 3 2 6 6 6 8 8 7 6 6 10
1 0 4 5 16 3 4 5 4 4 4 2 2 2 2 5 7 6 4 2 3 2 5 3 4 2 7 3 1 4 6 1 3 4 2 4 4 4 9 6 7 9 8 8 8
1 2 3 8 3 5 4 6 4 4 2 4 4 2 1 4 3 1 5 2 2 2 2 3 2 7 2 2 2 4 2 7 6 4 5 2 5 4 9 6 8 5 7 7 7
1 2 2 0 3 0 3 6 3 2 6 4 3 6 6 5 2 3 3 3 9 9 4 6 4 2 8 7 2 2 2 3 5 2 2 4 4 6 7 5 9 8 8 6 7
2 1 2 3 3 2 4 4 3 2 2 6 6 1 6 2 3 4 4 7 8 6 6 4 0 3 6 6 5 4 2 5 6 3 2 5 4 2 7 6 6 8 6 5 3
2 3 3 3 1 5 2 4 1 3 5 4 22 3 1 1 4 5 2 3 9 4 7 5 1 5 5 5 3 3 5 3 6 4 4 5 6 2 2 5 6 6 5 5 7
1 2 3 4 5 4 3 3 4 3 5 11 8 7 8 5 3 5 2 4 1 9 4 6 4 4 7 7 3 2 1 2 2 5 6 7 8 5 4 4 4 2 5 8 7
2 2 3 2 2 5 9 6 8 5 2 6 4 7 5 8 9 10 8 5 6 5 9 3 3 5 3 5 3 6 8 7 6 6 6 8 4 4 3 3 4 6 8 8 8
2 2 3 3 1 4 6 8 7 6 8 9 5 2 5 6 12 6 7 3 4 7 7 7 5 3 4 4 3 6 6 3 5 6 6 6 4 5 2 7 7 6 8 8 6
Wind_Direction
333 332 337 333 336 337 335 334 333 332 332 328 323 319 322 324 314 183 258 221 168 184 123 299 318 233 100 106 192 160 51 333 3 354 164 142 136 152 102 137 186 190 149 157 151
331 330 336 331 334 334 333 333 333 329 328 325 321 318 325 331 302 257 250 224 211 128 325 57 357 41 72 15 25 51 71 283 285 285 198 161 130 138 118 146 37 93 107 137 148
330 329 333 331 332 332 331 331 331 326 324 321 320 320 324 324 308 259 200 206 124 163 96 79 70 43 57 355 11 334 203 329 318 332 187 148 145 93 130 252 218 146 144 153 154
328 329 330 330 329 329 328 328 327 321 318 317 321 322 322 265 231 332 107 106 146 169 131 133 102 69 84 73 325 356 327 335 323 316 214 147 120 121 214 203 148 148 145 153 161
328 330 328 329 327 326 323 322 320 315 312 313 321 325 338 343 254 106 108 138 151 176 117 119 92 162 103 76 304 147 328 342 326 306 355 113 121 133 99 114 137 145 154 152 169
327 328 326 327 325 325 319 318 315 309 305 307 320 321 344 308 271 139 140 165 209 152 188 121 195 160 108 133 215 170 292 316 313 308 8 101 84 94 147 130 142 150 168 175 170
326 326 324 325 323 323 317 314 307 300 296 301 315 306 275 240 332 157 164 188 189 169 112 183 157 29 91 62 328 9 353 336 290 247 160 117 15 107 149 148 153 166 178 192 207
326 325 324 323 322 321 314 307 300 291 286 279 305 243 253 245 336 242 177 270 231 173 145 154 130 84 33 98 53 18 46 331 287 7 224 106 208 128 163 160 171 181 190 196 210
326 324 324 321 321 318 311 304 297 281 243 209 148 142 268 296 178 228 175 196 210 134 76 63 121 119 327 111 52 37 254 232 302 192 143 101 139 203 173 181 183 195 198 207 210
325 323 323 320 321 320 315 301 267 203 183 182 262 338 276 248 208 179 182 81 83 63 51 55 65 103 170 119 193 193 234 261 250 285 158 140 135 168 183 188 198 203 207 214 210
323 321 321 320 320 328 344 8 20 324 210 204 185 252 272 277 144 175 143 116 103 53 85 30 120 140 238 190 287 207 216 257 240 248 139 217 125 191 195 201 204 216 216 215 219
321 320 320 317 316 325 314 302 93 148 308 235 244 265 270 62 320 212 95 148 114 112 28 88 196 213 229 256 244 253 263 268 281 232 157 158 242 146 180 215 207 211 215 224 222
320 319 320 317 316 321 194 247 326 3 221 289 190 213 207 147 215 248 133 119 125 145 204 176 211 161 201 248 257 255 231 258 212 73 59 111 328 252 197 212 204 223 215 223 209
319 318 320 322 319 321 246 279 272 188 49 272 228 261 161 129 268 171 147 132 64 171 173 216 199 193 218 237 203 265 232 238 163 124 183 72 254 264 222 228 221 220 213 222 217
315 314 316 340 301 223 109 329 302 71 349 176 202 110 144 155 193 188 178 68 170 183 143 255 185 188 232 215 166 225 77 172 154 93 114 118 64 266 160 230 234 225 222 219 222
310 309 313 232 237 250 315 309 79 41 261 311 162 167 123 187 267 90 140 98 151 156 230 238 228 220 214 226 191 266 108 65 87 90 27 230 150 276 188 213 240 221 226 226 221
308 300 270 296 234 333 301 82 49 134 317 307 227 157 71 148 252 152 164 215 189 98 356 331 270 275 190 309 47 97 65 353 4 15 222 256 144 242 248 232 210 212 222 226 225
308 288 244 238 263 350 0 59 159 229 241 306 340 89 149 188 267 208 130 211 167 100 107 264 321 218 148 190 194 199 154 158 201 196 263 49 232 253 253 257 143 230 231 210 206
313 244 263 251 214 172 74 102 214 205 239 323 327 126 204 188 144 288 187 208 193 153 188 137 276 291 228 229 147 186 185 174 108 40 85 240 302 321 34 45 48 12 50 201 194
319 309 254 152 158 100 81 228 241 189 187 138 353 88 276 168 151 165 172 116 179 180 127 227 298 286 292 324 238 182 153 77 23 131 197 316 299 268 356 338 36 23 11 360 4
2 30 275 160 133 52 159 231 289 282 68 147 240 249 124 308 78 120 194 140 189 91 146 161 142 286 323 50 208 348 70 59 110 108 146 126 286 274 273 199 111 49 31 21 26
104 25 297 127 79 93 178 192 304 211 5 331 289 235 160 185 128 188 241 246 168 153 210 207 174 302 253 276 232 209 156 106 114 229 80 128 289 350 355 352 98 72 44 21 28
101 252 10 54 144 212 238 224 211 251 31 345 259 214 62 133 231 185 193 238 221 138 176 193 46 325 345 356 8 64 70 100 108 92 175 122 239 38 11 47 46 87 65 45 61
93 88 326 44 224 148 167 281 233 255 214 102 280 83 172 1 58 234 263 284 203 101 76 84 160 165 196 220 215 27 353 98 113 101 175 194 160 227 323 108 69 59 67 58 43
70 242 198 211 282 199 79 8 334 345 234 211 238 226 184 165 126 247 240 301 238 169 179 179 254 178 229 241 180 107 292 272 146 157 154 186 148 195 190 124 81 55 69 75 59
119 69 358 234 285 180 143 212 215 243 225 275 273 209 150 168 191 206 158 221 229 87 166 204 248 172 291 317 83 62 17 75 50 94 58 105 119 144 109 183 102 75 92 75 61
303 306 119 274 14 135 201 197 230 155 244 213 257 179 199 238 202 218 93 113 159 173 186 163 146 122 236 338 69 13 329 352 61 41 125 152 200 124 116 62 54 83 89 91 91